Location: Fort Worth, Tx
(32.7431°N, 97.3695°W)
Time: 03:54:21
(UTC-04:00)

Vanguard 3 - Pass Details

Date: 03 March 2024
Orbit: 510 x 3234 km, 33.3° (Epoch: 24 April)

Event Time Altitude Azimuth Distance (km) Brightness Sun altitude
Rises 22:13:20 0° 269° (W) 6,468 12.7 -35.1°
Reaches altitude 10° 22:17:13 10° 270° (W) 5,693 12.1 -35.8°
Maximum altitude 22:36:24 88° 2° (N) 3,235 9.9 -39.6°
Enters shadow 22:40:49 66° 88° (E) 3,383 9.8 -40.5°
